Location: *
(48.8667°N, 2.3331°E)
Time: 10:27:51
(UTC+00:00)

Cosmos 2208 Rocket - Pass Details

Date: 09 April 2020
Orbit: 754 x 806 km, 74.0° (Epoch: 24 May)

Event Time Altitude Azimuth Distance (km) Brightness Sun altitude
Rises 21:28:01 0° 334° (NNW) 3,225 8.5 -25.0°
Reaches altitude 10° 21:30:23 10° 332° (NNW) 2,300 7.5 -25.2°
Maximum altitude 21:35:33 67° 251° (WSW) 830 4.1 -25.7°
Enters shadow 21:36:03 63° 217° (SW) 856 4.1 -25.8°
